GW3676 Weather Reports


time (UTC)temp
C
wind
direction
speed
KPH
gust
KPH
rain 1hr
cm
rain 24hr
cm
rain mn
cm
humidity
%
barometer
mb
20260506131608 7 9 1.6 8.0 0.00 3.23 1.63 95 1009.0
20260506130049 7 0 1.6 11.3 0.00 3.23 1.63 95 1008.9
20260506124554 7 309 1.6 4.8 0.00 3.23 1.63 95 1008.7
20260506123100 7 308 1.6 8.0 0.00 3.23 1.63 96 1008.5
20260506121557 7 5 1.6 6.4 0.00 3.23 1.63 96 1008.3
20260506120103 7 41 0.0 6.4 0.00 3.23 1.63 96 1008.2
20260506114553 7 300 1.6 6.4 0.00 3.23 1.63 96 1008.5
20260506113055 7 294 1.6 6.4 0.05 3.23 1.63 96 1008.0
20260506111550 7 42 0.0 6.4 0.08 3.23 1.63 96 1007.8
20260506110101 7 94 1.6 8.0 0.13 3.23 1.63 96 1007.6
20260506104603 7 360 1.6 4.8 0.18 3.23 1.63 96 1007.3
20260506103049 7 0 0.0 6.4 0.20 3.17 1.57 96 1006.2
20260506101552 7 355 1.6 6.4 0.23 3.15 1.55 95 1006.5
20260506100058 7 342 1.6 6.4 0.23 3.10 1.47 95 1006.7
20260506094559 7 0 0.0 4.8 0.23 3.05 1.45 95 1007.5
20260506093050 6 0 0.0 6.4 0.23 2.95 1.37 95 1007.3
20260506091549 6 0 0.0 4.8 0.25 2.92 1.32 95 1007.4
20260506090053 6 304 1.6 9.7 0.25 2.87 1.27 95 1007.1
20260506084618 6 321 1.6 8.0 0.28 2.82 1.22 95 1007.1
20260506083050 6 31 3.2 12.9 0.28 2.74 1.14 95 1006.8
20260506081624 7 19 1.6 8.0 0.28 2.64 1.07 95 1006.9
20260506073058 7 9 4.8 14.5 0.28 2.46 0.86 95 1006.6
20260506071549 8 318 1.6 6.4 0.25 2.39 0.79 95 1006.3
20260506061552 8 330 0.0 6.4 0.25 2.13 0.53 95 1006.8
20260506044546 9 5 1.6 4.8 0.23 1.78 0.18 95 1007.5
20260506043049 9 296 1.6 4.8 0.20 1.73 0.13 95 1007.6
20260506041601 9 65 1.6 9.7 0.20 1.68 0.08 95 1007.7
20260506040050 9 5 1.6 6.4 0.20 1.60 0.00 95 1007.6
20260506034550 9 298 1.6 4.8 0.23 1.55 1.55 95 1007.8
20260506033048 10 308 0.0 6.4 0.33 1.52 1.52 95 1007.9
20260506031548 10 339 1.6 4.8 0.41 1.47 1.47 95 1007.8
20260506030050 10 29 0.0 6.4 0.43 1.40 1.40 94 1008.3
20260506024550 10 34 1.6 6.4 0.43 1.32 1.32 95 1008.8
20260506023100 10 5 1.6 6.4 0.33 1.19 1.19 94 1008.0
20260506021606 10 15 1.6 8.0 0.25 1.07 1.07 94 1007.7
20260506020052 11 330 3.2 6.4 0.15 0.97 0.97 94 1007.6
20260506014553 11 322 0.0 6.4 0.10 0.89 0.89 94 1007.4
20260506013100 12 333 1.6 6.4 0.15 0.86 0.86 93 1007.4
20260506011614 12 330 1.6 4.8 0.13 0.81 0.81 93 1007.2
20260506010056 13 10 1.6 4.8 0.18 0.81 0.81 94 1007.1
20260506004555 13 0 0.0 1.6 0.28 0.79 0.79 94 1007.2
20260506003054 13 0 0.0 1.6 0.43 0.71 0.71 94 1007.2
20260506001557 13 0 0.0 3.2 0.66 0.69 0.69 94 1007.3
20260506000051 13 0 0.0 1.6 0.61 0.64 0.64 93 1007.3
20260505234551 13 67 1.6 6.4 0.46 0.48 0.48 92 1007.6
20260505233058 14 205 1.6 9.7 0.25 0.28 0.28 91 1007.7
20260505231604 15 5 1.6 6.4 0.00 0.03 0.03 89 1007.7
20260505230055 15 0 0.0 3.2 0.00 0.03 0.03 88 1006.9
20260505224545 15 337 0.0 4.8 0.00 0.03 0.03 88 1006.9
20260505223051 15 318 0.0 6.4 0.00 0.03 0.03 87 1007.0
20260505221553 15 87 0.0 12.9 0.00 0.03 0.03 86 1006.9
20260505220054 16 0 1.6 8.0 0.00 0.03 0.03 86 1007.3
20260505214556 16 329 1.6 6.4 0.00 0.03 0.03 84 1007.2
20260505213046 16 0 0.0 4.8 0.00 0.03 0.03 86 1007.2
20260505211549 16 0 0.0 4.8 0.03 0.03 0.03 87 1007.1
20260505210045 16 162 1.6 6.4 0.03 0.03 0.03 86 1007.1
20260505204548 16 121 1.6 11.3 0.03 0.03 0.03 85 1007.2
20260505203107 16 165 1.6 14.5 0.03 0.03 0.03 82 1007.3
20260505201554 18 120 6.4 11.3 0.00 0.00 0.00 73 1007.3
20260505200053 18 185 0.0 8.0 0.00 0.00 0.00 69 1007.1
20260505194636 18 0 1.6 6.4 0.00 0.00 0.00 69 1007.2
20260505193046 18 187 3.2 9.7 0.00 0.00 0.00 68 1007.2
20260505191542 18 111 0.0 4.8 0.00 0.00 0.00 71 1007.3
20260505190046 18 0 1.6 6.4 0.00 0.00 0.00 69 1007.7
20260505184549 18 65 0.0 11.3 0.00 0.00 0.00 70 1007.9
20260505183049 18 117 4.8 17.7 0.00 0.00 0.00 66 1008.1
20260505181550 19 144 8.0 19.3 0.00 0.00 0.00 65 1008.0
20260505180052 19 216 4.8 14.5 0.00 0.00 0.00 65 1007.8
20260505174547 19 78 4.8 17.7 0.00 0.00 0.00 66 1007.6
20260505173055 19 157 3.2 14.5 0.00 0.00 0.00 65 1007.5
20260505171548 20 147 6.4 22.5 0.00 0.00 0.00 63 1007.4
20260505170104 20 108 1.6 16.1 0.00 0.00 0.00 65 1007.3
20260505164550 19 180 8.0 19.3 0.00 0.00 0.00 64 1007.6
20260505163051 20 188 6.4 20.9 0.00 0.00 0.00 63 1007.6
20260505161610 20 216 3.2 12.9 0.00 0.00 0.00 64 1007.5
20260505153100 19 168 4.8 16.1 0.00 0.00 0.00 65 1007.0
20260505151558 19 92 3.2 14.5 0.00 0.00 0.00 68 1007.0